FHY562 LTFM-LTAI

Flight info

Callsign FHY562
Flight time 1h 10m
Altitude 31000
Route RATVU UT35 BABSA
Aircraft A320/M-SDE3FGHIRWY/LB1

Departure

Time 2026-05-04 18:18
Airport İstanbul Airport (LTFM)

Arrival

Time 2026-05-04 19:28
Airport Antalya International Airport (LTAI)
Time Latitude Longitude Altitude Speed Heading
2026-05-04 17:52 41.26362 28.74417 331 ft 0 kts 211°
2026-05-04 18:03 41.26365 28.74419 330 ft 3 kts 211°
2026-05-04 18:03 41.26388 28.74436 331 ft 4 kts 211°
2026-05-04 18:03 41.26407 28.74451 330 ft 4 kts 214°
2026-05-04 18:03 41.26423 28.74475 329 ft 4 kts 264°
2026-05-04 18:04 41.26420 28.74509 330 ft 4 kts 277°
2026-05-04 18:04 41.26419 28.74520 331 ft 0 kts 269°
2026-05-04 18:06 41.26539 28.74473 333 ft 16 kts 359°
2026-05-04 18:06 41.26653 28.74470 334 ft 17 kts 359°
2026-05-04 18:06 41.26777 28.74467 334 ft 18 kts 359°
2026-05-04 18:07 41.26899 28.74463 334 ft 15 kts 359°
2026-05-04 18:07 41.26973 28.74526 332 ft 14 kts 85°
2026-05-04 18:07 41.26973 28.74643 330 ft 12 kts 89°
2026-05-04 18:07 41.26975 28.74747 334 ft 10 kts 89°
2026-05-04 18:08 41.26976 28.74838 334 ft 9 kts 89°
2026-05-04 18:08 41.26977 28.74953 334 ft 16 kts 89°
2026-05-04 18:08 41.26980 28.75097 334 ft 15 kts 89°
2026-05-04 18:08 41.26979 28.75222 334 ft 12 kts 104°
2026-05-04 18:09 41.26842 28.75264 332 ft 9 kts 179°
2026-05-04 18:09 41.26595 28.75271 330 ft 16 kts 179°
2026-05-04 18:10 41.26493 28.75273 333 ft 14 kts 179°
2026-05-04 18:10 41.26400 28.75275 334 ft 13 kts 179°
2026-05-04 18:10 41.26334 28.75319 334 ft 11 kts 105°
2026-05-04 18:10 41.26334 28.75410 334 ft 9 kts 89°
2026-05-04 18:11 41.26336 28.75480 334 ft 6 kts 89°
2026-05-04 18:11 41.26336 28.75519 334 ft 3 kts 89°
2026-05-04 18:11 41.26336 28.75527 334 ft 0 kts 89°
2026-05-04 18:15 41.26337 28.75560 334 ft 9 kts 89°
2026-05-04 18:15 41.26340 28.75633 330 ft 7 kts 75°
2026-05-04 18:16 41.26375 28.75661 334 ft 6 kts
2026-05-04 18:16 41.26410 28.75664 334 ft 0 kts 359°
2026-05-04 18:17 41.26430 28.75664 331 ft 17 kts 359°
2026-05-04 18:17 41.27850 28.75634 351 ft 172 kts 359°
2026-05-04 18:18 41.29116 28.75657 989 ft 189 kts
2026-05-04 18:18 41.30398 28.76224 1884 ft 202 kts 26°
2026-05-04 18:18 41.31713 28.77205 2569 ft 230 kts 29°
2026-05-04 18:18 41.33112 28.78336 3226 ft 239 kts 30°
2026-05-04 18:19 41.35955 28.80636 4520 ft 239 kts 27°
2026-05-04 18:19 41.37355 28.81825 5165 ft 241 kts 36°
2026-05-04 18:19 41.38279 28.83745 5818 ft 259 kts 69°
2026-05-04 18:20 41.38442 28.86194 6490 ft 270 kts 81°
2026-05-04 18:20 41.38466 28.88694 7119 ft 271 kts 82°
2026-05-04 18:20 41.38218 28.91219 7747 ft 284 kts 104°
2026-05-04 18:20 41.37080 28.93439 8397 ft 303 kts 134°
2026-05-04 18:21 41.35234 28.94889 9050 ft 315 kts 156°
2026-05-04 18:21 41.33095 28.95653 9742 ft 320 kts 162°
2026-05-04 18:21 41.30908 28.96337 10373 ft 326 kts 162°
2026-05-04 18:21 41.28668 28.97018 10994 ft 336 kts 163°
2026-05-04 18:22 41.26360 28.97711 11620 ft 344 kts 163°
2026-05-04 18:22 41.23993 28.98418 12261 ft 353 kts 164°
2026-05-04 18:22 41.21577 28.99139 12944 ft 360 kts 164°
2026-05-04 18:22 41.19111 28.99877 13620 ft 366 kts 165°
2026-05-04 18:23 41.16638 29.00621 14238 ft 371 kts 165°
2026-05-04 18:23 41.14099 29.01387 14838 ft 377 kts 164°
2026-05-04 18:23 41.11497 29.02171 15456 ft 381 kts 164°
2026-05-04 18:23 41.08930 29.02943 16082 ft 385 kts 164°
2026-05-04 18:24 41.06309 29.03729 16725 ft 388 kts 164°
2026-05-04 18:24 41.03664 29.04523 17375 ft 391 kts 164°
2026-05-04 18:24 41.00997 29.05324 18033 ft 394 kts 164°
2026-05-04 18:24 40.98316 29.06127 18661 ft 395 kts 164°
2026-05-04 18:25 40.95628 29.06927 19254 ft 397 kts 163°
2026-05-04 18:25 40.92932 29.07729 19863 ft 398 kts 163°
2026-05-04 18:25 40.90228 29.08537 20472 ft 399 kts 163°
2026-05-04 18:25 40.87522 29.09348 21100 ft 399 kts 163°
2026-05-04 18:26 40.84811 29.10156 21738 ft 399 kts 163°
2026-05-04 18:26 40.82107 29.10962 22393 ft 398 kts 162°
2026-05-04 18:26 40.79412 29.11765 23065 ft 397 kts 162°
2026-05-04 18:26 40.76723 29.12565 23713 ft 395 kts 162°
2026-05-04 18:27 40.74051 29.13361 24312 ft 392 kts 162°
2026-05-04 18:27 40.71398 29.14150 24902 ft 390 kts 161°
2026-05-04 18:27 40.68768 29.14932 25503 ft 386 kts 161°
2026-05-04 18:27 40.66159 29.15706 26114 ft 382 kts 161°
2026-05-04 18:28 40.63576 29.16469 26734 ft 378 kts 161°
2026-05-04 18:28 40.61027 29.17219 27384 ft 372 kts 161°
2026-05-04 18:28 40.58525 29.17955 28050 ft 366 kts 161°
2026-05-04 18:28 40.56024 29.18691 28387 ft 371 kts 161°
2026-05-04 18:29 40.53471 29.19453 28530 ft 381 kts 161°
2026-05-04 18:29 40.50852 29.20237 28671 ft 391 kts 161°
2026-05-04 18:29 40.48197 29.21030 28812 ft 401 kts 162°
2026-05-04 18:29 40.45441 29.21851 28953 ft 411 kts 162°
2026-05-04 18:30 40.39718 29.23538 29242 ft 431 kts 162°
2026-05-04 18:30 40.36758 29.24403 29381 ft 441 kts 162°
2026-05-04 18:30 40.33737 29.25282 29565 ft 449 kts 162°
2026-05-04 18:31 40.30658 29.26179 29705 ft 457 kts 162°
2026-05-04 18:31 40.27533 29.27094 29846 ft 464 kts 162°
2026-05-04 18:31 40.24366 29.28024 29997 ft 470 kts 162°
2026-05-04 18:31 40.21146 29.28969 30134 ft 476 kts 162°
2026-05-04 18:32 40.17889 29.29923 30260 ft 482 kts 163°
2026-05-04 18:32 40.14597 29.30884 30381 ft 488 kts 163°
2026-05-04 18:32 40.11270 29.31851 30517 ft 493 kts 163°
2026-05-04 18:32 40.07913 29.32828 30724 ft 495 kts 163°
2026-05-04 18:33 40.04542 29.33808 30980 ft 495 kts 163°
2026-05-04 18:33 39.97770 29.35773 31069 ft 504 kts 163°
2026-05-04 18:34 39.90886 29.37879 31070 ft 508 kts 158°
2026-05-04 18:34 39.84360 29.41312 31067 ft 507 kts 152°
2026-05-04 18:35 39.77857 29.44891 31067 ft 507 kts 153°
2026-05-04 18:35 39.71352 29.48453 31066 ft 508 kts 153°
2026-05-04 18:36 39.64837 29.52010 31071 ft 508 kts 153°
2026-05-04 18:36 39.58273 29.55458 31085 ft 510 kts 154°
2026-05-04 18:37 39.51626 29.58716 31072 ft 511 kts 155°
2026-05-04 18:37 39.45014 29.61936 31058 ft 511 kts 154°
2026-05-04 18:38 39.38375 29.65234 31056 ft 511 kts 154°
2026-05-04 18:38 39.31748 29.68550 31048 ft 511 kts 154°
2026-05-04 18:39 39.25117 29.71843 31043 ft 511 kts 154°
2026-05-04 18:39 39.19594 29.74565 31040 ft 511 kts 155°
2026-05-04 18:40 39.12943 29.77840 31043 ft 512 kts 155°
2026-05-04 18:40 39.06293 29.81120 31042 ft 512 kts 155°
2026-05-04 18:41 38.99645 29.84392 31051 ft 512 kts 155°
2026-05-04 18:41 38.93001 29.87649 31009 ft 504 kts 155°
2026-05-04 18:41 38.89740 29.89236 30703 ft 497 kts 155°
2026-05-04 18:42 38.86512 29.90804 30390 ft 496 kts 155°
2026-05-04 18:42 38.83276 29.92357 30071 ft 497 kts 155°
2026-05-04 18:42 38.80022 29.93902 29700 ft 499 kts 155°
2026-05-04 18:42 38.76764 29.95441 29336 ft 499 kts 155°
2026-05-04 18:43 38.73498 29.96985 28962 ft 500 kts 156°
2026-05-04 18:43 38.70228 29.98530 28604 ft 500 kts 156°
2026-05-04 18:43 38.66960 30.00075 28251 ft 501 kts 156°
2026-05-04 18:43 38.63693 30.01619 27903 ft 499 kts 156°
2026-05-04 18:44 38.60449 30.03154 27556 ft 496 kts 156°
2026-05-04 18:44 38.58306 30.04166 27335 ft 495 kts 156°
2026-05-04 18:44 38.53997 30.06201 26872 ft 491 kts 157°
2026-05-04 18:44 38.50804 30.07708 26543 ft 488 kts 158°
2026-05-04 18:45 38.47628 30.09208 26217 ft 485 kts 158°
2026-05-04 18:45 38.44510 30.10679 25897 ft 482 kts 158°
2026-05-04 18:45 38.41367 30.12156 25609 ft 481 kts 158°
2026-05-04 18:45 38.38196 30.13642 25279 ft 479 kts 158°
2026-05-04 18:46 38.35071 30.15104 24961 ft 478 kts 159°
2026-05-04 18:46 38.31952 30.16561 24653 ft 476 kts 159°
2026-05-04 18:46 38.28887 30.17979 24344 ft 474 kts 159°
2026-05-04 18:46 38.25758 30.19415 24036 ft 471 kts 160°
2026-05-04 18:47 38.22685 30.20819 23732 ft 469 kts 160°
2026-05-04 18:47 38.19619 30.22220 23403 ft 467 kts 160°
2026-05-04 18:47 38.16608 30.23601 23048 ft 464 kts 160°
2026-05-04 18:47 38.13581 30.24992 22694 ft 459 kts 160°
2026-05-04 18:48 38.10618 30.26350 22343 ft 449 kts 160°
2026-05-04 18:48 38.07710 30.27682 21996 ft 440 kts 160°
2026-05-04 18:48 38.04858 30.28988 21650 ft 432 kts 159°
2026-05-04 18:48 38.02102 30.30430 21309 ft 423 kts 151°
2026-05-04 18:49 37.99646 30.32395 21034 ft 412 kts 140°
2026-05-04 18:49 37.97438 30.34597 21022 ft 395 kts 139°
2026-05-04 18:49 37.95315 30.36704 21028 ft 383 kts 139°
2026-05-04 18:49 37.93227 30.38771 21028 ft 380 kts 139°
2026-05-04 18:50 37.91149 30.40827 21038 ft 379 kts 139°
2026-05-04 18:50 37.88971 30.42726 21027 ft 382 kts 151°
2026-05-04 18:50 37.86488 30.43930 21032 ft 383 kts 167°
2026-05-04 18:50 37.83845 30.44298 21027 ft 382 kts 184°
2026-05-04 18:51 37.81234 30.43826 21030 ft 378 kts 200°
2026-05-04 18:51 37.78831 30.42579 21028 ft 371 kts 215°
2026-05-04 18:51 37.76678 30.40795 20959 ft 370 kts 219°
2026-05-04 18:51 37.74554 30.38978 20731 ft 367 kts 219°
2026-05-04 18:52 37.72441 30.37177 20530 ft 366 kts 219°
2026-05-04 18:52 37.70333 30.35378 20329 ft 364 kts 219°
2026-05-04 18:52 37.68235 30.33593 20128 ft 364 kts 218°
2026-05-04 18:52 37.66139 30.31814 19933 ft 362 kts 218°
2026-05-04 18:53 37.64048 30.30035 19725 ft 361 kts 218°
2026-05-04 18:53 37.61875 30.28430 19532 ft 365 kts 208°
2026-05-04 18:53 37.59508 30.27370 19342 ft 368 kts 196°
2026-05-04 18:53 37.56975 30.26872 19151 ft 369 kts 187°
2026-05-04 18:54 37.54390 30.26533 18957 ft 368 kts 187°
2026-05-04 18:54 37.51880 30.26197 18763 ft 368 kts 188°
2026-05-04 18:54 37.49335 30.25848 18579 ft 367 kts 188°
2026-05-04 18:54 37.46801 30.25496 18382 ft 366 kts 188°
2026-05-04 18:55 37.44269 30.25141 18189 ft 365 kts 188°
2026-05-04 18:55 37.39245 30.24443 17748 ft 361 kts 188°
2026-05-04 18:55 37.36754 30.24101 17531 ft 359 kts 188°
2026-05-04 18:56 37.34278 30.23762 17316 ft 357 kts 188°
2026-05-04 18:56 37.31815 30.23427 17119 ft 355 kts 188°
2026-05-04 18:56 37.29368 30.23093 16895 ft 353 kts 188°
2026-05-04 18:56 37.26926 30.22759 16686 ft 351 kts 188°
2026-05-04 18:57 37.24507 30.22425 16476 ft 349 kts 189°
2026-05-04 18:57 37.22124 30.22096 16263 ft 347 kts 189°
2026-05-04 18:57 37.19700 30.21764 16061 ft 345 kts 189°
2026-05-04 18:57 37.17348 30.21482 15858 ft 345 kts 182°
2026-05-04 18:58 37.14988 30.21944 15663 ft 345 kts 160°
2026-05-04 18:58 37.12923 30.23419 15455 ft 342 kts 137°
2026-05-04 18:58 37.11423 30.25676 15260 ft 335 kts 115°
2026-05-04 18:58 37.10658 30.28376 15063 ft 326 kts 94°
2026-05-04 18:59 37.10426 30.31188 14838 ft 321 kts 87°
2026-05-04 18:59 37.10756 30.33859 14654 ft 302 kts 62°
2026-05-04 18:59 37.11839 30.35999 14461 ft 284 kts 39°
2026-05-04 18:59 37.13409 30.37382 14271 ft 269 kts 19°
2026-05-04 19:00 37.15175 30.37932 14080 ft 258 kts
2026-05-04 19:00 37.16950 30.38157 13888 ft 254 kts
2026-05-04 19:00 37.18692 30.38386 13673 ft 250 kts
2026-05-04 19:00 37.20417 30.38618 13478 ft 248 kts
2026-05-04 19:01 37.22139 30.38849 13265 ft 249 kts
2026-05-04 19:01 37.23833 30.39078 13085 ft 247 kts
2026-05-04 19:01 37.25549 30.39312 12998 ft 247 kts
2026-05-04 19:01 37.27267 30.39545 13006 ft 249 kts
2026-05-04 19:02 37.28988 30.39779 13013 ft 249 kts
2026-05-04 19:02 37.30708 30.40010 13008 ft 249 kts
2026-05-04 19:02 37.32433 30.40242 12995 ft 250 kts
2026-05-04 19:02 37.34163 30.40474 12999 ft 251 kts
2026-05-04 19:03 37.35899 30.40707 12995 ft 250 kts
2026-05-04 19:03 37.37632 30.40939 13000 ft 250 kts
2026-05-04 19:03 37.39358 30.41172 13000 ft 250 kts
2026-05-04 19:03 37.41086 30.41408 13007 ft 249 kts
2026-05-04 19:04 37.42805 30.41640 13006 ft 248 kts
2026-05-04 19:04 37.44515 30.41870 13007 ft 247 kts
2026-05-04 19:04 37.46224 30.42097 13008 ft 246 kts
2026-05-04 19:04 37.47922 30.42322 13011 ft 247 kts
2026-05-04 19:05 37.49630 30.42550 13001 ft 247 kts
2026-05-04 19:05 37.51349 30.42784 13007 ft 248 kts
2026-05-04 19:05 37.53060 30.43016 13017 ft 247 kts
2026-05-04 19:05 37.54763 30.43246 13015 ft 245 kts
2026-05-04 19:06 37.56468 30.43490 13015 ft 247 kts
2026-05-04 19:06 37.58056 30.44327 13017 ft 255 kts 34°
2026-05-04 19:06 37.59150 30.46115 13019 ft 265 kts 64°
2026-05-04 19:06 37.59384 30.48443 13033 ft 274 kts 90°
2026-05-04 19:07 37.59189 30.50805 13025 ft 275 kts 92°
2026-05-04 19:07 37.58616 30.53110 13007 ft 282 kts 118°
2026-05-04 19:07 37.57282 30.54924 13008 ft 287 kts 146°
2026-05-04 19:07 37.55435 30.55835 13002 ft 286 kts 175°
2026-05-04 19:08 37.53460 30.55762 13002 ft 285 kts 189°
2026-05-04 19:08 37.51487 30.55492 12944 ft 285 kts 189°
2026-05-04 19:08 37.49511 30.55213 12865 ft 287 kts 189°
2026-05-04 19:08 37.47531 30.54929 12776 ft 286 kts 188°
2026-05-04 19:09 37.45562 30.54651 12695 ft 283 kts 188°
2026-05-04 19:09 37.43601 30.54376 12614 ft 283 kts 189°
2026-05-04 19:09 37.41644 30.54099 12538 ft 283 kts 188°
2026-05-04 19:09 37.39688 30.53822 12450 ft 284 kts 189°
2026-05-04 19:10 37.37718 30.53545 12377 ft 285 kts 188°
2026-05-04 19:10 37.35760 30.53272 12293 ft 281 kts 188°
2026-05-04 19:10 37.33821 30.53004 12215 ft 281 kts 189°
2026-05-04 19:10 37.31886 30.52737 12139 ft 280 kts 188°
2026-05-04 19:11 37.29956 30.52473 12055 ft 280 kts 189°
2026-05-04 19:11 37.28013 30.52206 11975 ft 280 kts 189°
2026-05-04 19:11 37.26107 30.51942 11896 ft 277 kts 188°
2026-05-04 19:11 37.24171 30.51673 11806 ft 276 kts 189°
2026-05-04 19:12 37.22256 30.51408 11731 ft 278 kts 189°
2026-05-04 19:12 37.18458 30.50881 11593 ft 274 kts 188°
2026-05-04 19:12 37.16569 30.50620 11504 ft 272 kts 189°
2026-05-04 19:13 37.14681 30.50360 11420 ft 273 kts 188°
2026-05-04 19:13 37.12790 30.50100 11347 ft 274 kts 188°
2026-05-04 19:13 37.10892 30.50219 11262 ft 276 kts 166°
2026-05-04 19:13 37.09160 30.51234 11167 ft 276 kts 142°
2026-05-04 19:14 37.07871 30.52984 11060 ft 272 kts 118°
2026-05-04 19:14 37.07115 30.55135 10963 ft 269 kts 108°
2026-05-04 19:14 37.06428 30.57330 10977 ft 271 kts 109°
2026-05-04 19:14 37.05733 30.59528 10977 ft 272 kts 109°
2026-05-04 19:15 37.05037 30.61722 10977 ft 271 kts 109°
2026-05-04 19:15 37.04340 30.63918 10971 ft 271 kts 109°
2026-05-04 19:15 37.03413 30.65966 10961 ft 274 kts 130°
2026-05-04 19:15 37.01941 30.67470 10742 ft 274 kts 154°
2026-05-04 19:16 37.00133 30.68155 10471 ft 271 kts 177°
2026-05-04 19:16 36.98262 30.68088 10197 ft 268 kts 186°
2026-05-04 19:16 36.96408 30.67927 9938 ft 266 kts 186°
2026-05-04 19:16 36.94558 30.67770 9653 ft 267 kts 186°
2026-05-04 19:17 36.92713 30.67615 9354 ft 266 kts 185°
2026-05-04 19:17 36.90872 30.67463 9045 ft 264 kts 185°
2026-05-04 19:17 36.89046 30.67313 8744 ft 263 kts 185°
2026-05-04 19:17 36.87212 30.67165 8469 ft 264 kts 186°
2026-05-04 19:18 36.85363 30.67015 8177 ft 267 kts 185°
2026-05-04 19:18 36.83523 30.66867 7892 ft 264 kts 186°
2026-05-04 19:18 36.81681 30.66715 7608 ft 267 kts 186°
2026-05-04 19:18 36.79829 30.66559 7329 ft 267 kts 186°
2026-05-04 19:19 36.77989 30.66406 7055 ft 264 kts 186°
2026-05-04 19:19 36.76159 30.66254 6808 ft 264 kts 186°
2026-05-04 19:19 36.74348 30.66103 6558 ft 265 kts 186°
2026-05-04 19:19 36.72487 30.65947 6305 ft 264 kts 186°
2026-05-04 19:20 36.70657 30.65795 6042 ft 264 kts 186°
2026-05-04 19:20 36.68817 30.65643 5772 ft 265 kts 187°
2026-05-04 19:20 36.67006 30.65495 5512 ft 264 kts 186°
2026-05-04 19:20 36.65187 30.65755 5257 ft 260 kts 160°
2026-05-04 19:21 36.63702 30.66920 5001 ft 254 kts 130°
2026-05-04 19:21 36.63006 30.68099 4831 ft 246 kts 112°
2026-05-04 19:21 36.62595 30.70720 4489 ft 226 kts 75°
2026-05-04 19:21 36.63101 30.72478 4239 ft 210 kts 49°
2026-05-04 19:22 36.64095 30.73712 3978 ft 197 kts 26°
2026-05-04 19:22 36.65331 30.74308 3727 ft 188 kts
2026-05-04 19:22 36.66603 30.74670 3469 ft 186 kts
2026-05-04 19:22 36.67450 30.74917 3304 ft 185 kts
2026-05-04 19:23 36.68700 30.75285 3040 ft 184 kts
2026-05-04 19:23 36.69944 30.75652 2785 ft 183 kts
2026-05-04 19:23 36.71164 30.76012 2554 ft 182 kts
2026-05-04 19:23 36.72384 30.76371 2346 ft 178 kts
2026-05-04 19:24 36.73578 30.76722 2143 ft 175 kts
2026-05-04 19:24 36.74747 30.77066 2011 ft 168 kts
2026-05-04 19:24 36.75837 30.77335 1927 ft 151 kts
2026-05-04 19:24 36.76822 30.77466 1918 ft 137 kts
2026-05-04 19:25 36.77746 30.77590 1931 ft 132 kts
2026-05-04 19:25 36.78657 30.77713 1927 ft 132 kts
2026-05-04 19:25 36.79566 30.77836 1890 ft 131 kts
2026-05-04 19:25 36.80475 30.77960 1775 ft 131 kts
2026-05-04 19:26 36.81376 30.78083 1635 ft 129 kts
2026-05-04 19:26 36.82273 30.78205 1468 ft 130 kts
2026-05-04 19:26 36.83166 30.78327 1301 ft 129 kts
2026-05-04 19:26 36.84060 30.78450 1117 ft 128 kts
2026-05-04 19:27 36.84959 30.78570 941 ft 131 kts 359°
2026-05-04 19:27 36.85874 30.78699 712 ft 133 kts
2026-05-04 19:27 36.86779 30.78828 506 ft 132 kts
2026-05-04 19:27 36.87691 30.78972 375 ft 132 kts
2026-05-04 19:28 36.88612 30.79082 220 ft 133 kts 359°
2026-05-04 19:28 36.89450 30.79177 177 ft 103 kts
2026-05-04 19:28 36.89984 30.79257 175 ft 53 kts
2026-05-04 19:28 36.90248 30.79298 176 ft 24 kts 13°
2026-05-04 19:29 36.90375 30.79388 176 ft 20 kts 37°
2026-05-04 19:29 36.90466 30.79476 176 ft 14 kts 53°
2026-05-04 19:29 36.90388 30.79537 176 ft 15 kts 186°
2026-05-04 19:29 36.90285 30.79522 175 ft 16 kts 186°
2026-05-04 19:30 36.90155 30.79504 175 ft 15 kts 186°
2026-05-04 19:30 36.90022 30.79487 175 ft 20 kts 186°
2026-05-04 19:30 36.89879 30.79467 176 ft 21 kts 186°
2026-05-04 19:30 36.89742 30.79447 176 ft 19 kts 186°
2026-05-04 19:31 36.89623 30.79430 176 ft 17 kts 186°
2026-05-04 19:31 36.89523 30.79416 176 ft 7 kts 186°
2026-05-04 19:31 36.89481 30.79410 176 ft 6 kts 186°
2026-05-04 19:31 36.89439 30.79405 176 ft 9 kts 186°
2026-05-04 19:32 36.89363 30.79395 176 ft 11 kts 186°
2026-05-04 19:32 36.89287 30.79385 176 ft 10 kts 185°
2026-05-04 19:32 36.89223 30.79395 176 ft 9 kts 135°
2026-05-04 19:32 36.89214 30.79463 176 ft 8 kts 95°
2026-05-04 19:33 36.89208 30.79547 176 ft 13 kts 94°
2026-05-04 19:33 36.89200 30.79654 176 ft 12 kts 96°
2026-05-04 19:33 36.89189 30.79751 176 ft 11 kts 98°
2026-05-04 19:33 36.89182 30.79840 176 ft 10 kts 95°
2026-05-04 19:34 36.89159 30.79907 176 ft 8 kts 155°
2026-05-04 19:34 36.89111 30.79900 176 ft 7 kts 188°
2026-05-04 19:34 36.89070 30.79892 176 ft 6 kts 187°
2026-05-04 19:34 36.89033 30.79888 176 ft 5 kts 186°
2026-05-04 19:35 36.89014 30.79900 176 ft 2 kts 105°
2026-05-04 19:35 36.89012 30.79915 176 ft 2 kts 100°
2026-05-04 19:35 36.89010 30.79934 176 ft 2 kts 96°
2026-05-04 19:35 36.89009 30.79947 176 ft 2 kts 96°
2026-05-04 19:36 36.89009 30.79953 176 ft 0 kts 96°